Weather History for Crestview, FL

Change the Weather History Date:

Sunday, February 17, 2013

  Actual Average Record
Temperature  
Mean Temperature 39 °F -  
Max Temperature 54 °F - - ()
Min Temperature 24 °F - - ()
Degree Days  
Heating Degree Days 26    
Moisture  
Dew Point 21 °F    
Average Humidity 56    
Maximum Humidity 85    
Minimum Humidity 19    
Precipitation  
Precipitation 0.00 in - - ()
Sea Level Pressure  
Sea Level Pressure 30.31 in    
Wind  
Wind Speed 3 mph (WSW)    
Max Wind Speed 9 mph    
Max Gust Speed -    
Visibility 10 miles    
Events      
T = Trace of Precipitation, MM = Missing Value Source: NWS Daily Summary

Daily Weather History Graph

Daily Weather History Graph

Search for Another Location

Airport:

Trip Planner

Search our weather history database for the weather conditions in past years. The results will help you decide how hot, cold, wet, or windy it might be!

Date:

Astronomy

Feb. 17, 2013 Rise Set
Actual Time 6:24 AM CST 5:35 PM CST
Civil Twilight 6:00 AM CST 6:00 PM CST
Nautical Twilight 5:31 AM CST 6:28 PM CST
Astronomical Twilight 5:03 AM CST 6:56 PM CST
Moon 10:49 AM CST (2/17) No Moon Set
Length of Visible Light 12h 00m
Length of Day
11h 11m
Waxing Crescent, 49% of the Moon is Illuminated
Feb 17
Waxing Crescent
Feb 17
First Quarter
Feb 25
Full
Mar 4
Last Quarter
Mar 11
New

Hourly Weather History & Observations

Time (CST) Temp. Windchill Dew Point Humidity Pressure Visibility Wind Dir Wind Speed Gust Speed Precip Events Conditions
12:58 AM 31.1 °F - 20.5 °F 65% 30.28 in 10.0 mi West 2.3 mph - N/A   Clear
1:58 AM 26.2 °F - 20.5 °F 79% 30.26 in 10.0 mi Calm Calm - N/A   Clear
2:58 AM 26.8 °F 22.8 °F 20.7 °F 78% 30.28 in 10.0 mi West 3.5 mph - N/A   Clear
3:58 AM 25.2 °F - 20.5 °F 82% 30.28 in 10.0 mi WNW 2.3 mph - N/A   Clear
4:58 AM 28.0 °F - 20.5 °F 73% 30.31 in 10.0 mi West 2.3 mph - N/A   Clear
5:58 AM 26.6 °F 21.2 °F 19.9 °F 76% 30.33 in 10.0 mi NNW 4.6 mph - N/A   Clear
6:58 AM 24.3 °F - 20.3 °F 85% 30.34 in 10.0 mi NNW 2.3 mph - N/A   Clear
7:58 AM 33.1 °F - 22.1 °F 64% 30.36 in 10.0 mi North 2.3 mph - N/A   Clear
8:58 AM 39.0 °F 35.7 °F 18.1 °F 43% 30.38 in 10.0 mi NNE 4.6 mph - N/A   Clear
9:58 AM 41.7 °F 36.7 °F 15.1 °F 34% 30.39 in 10.0 mi NNE 8.1 mph - N/A   Clear
10:58 AM 45.1 °F 42.8 °F 13.1 °F 27% 30.38 in 10.0 mi Variable 4.6 mph - N/A   Clear
11:58 AM 48.9 °F - 9.7 °F 21% 30.35 in 10.0 mi WNW 5.8 mph - N/A   Clear
12:58 PM 51.4 °F - 9.5 °F 19% 30.30 in 10.0 mi Variable 1.2 mph - N/A   Clear
1:58 PM 54.0 °F - 12.7 °F 19% 30.28 in 10.0 mi Variable 3.5 mph - N/A   Clear
2:58 PM 54.5 °F - 15.6 °F 22% 30.27 in 10.0 mi Variable 6.9 mph - N/A   Clear
3:58 PM 54.9 °F - 21.6 °F 27% 30.27 in 10.0 mi South 8.1 mph - N/A   Clear
4:58 PM 50.4 °F - 23.4 °F 35% 30.28 in 10.0 mi South 9.2 mph - N/A   Clear
5:58 PM 45.1 °F 41.4 °F 26.2 °F 48% 30.28 in 10.0 mi South 6.9 mph - N/A   Clear
6:58 PM 41.7 °F 39.8 °F 26.8 °F 55% 30.30 in 10.0 mi SSE 3.5 mph - N/A   Clear
7:58 PM 36.0 °F - 27.5 °F 71% 30.31 in 10.0 mi SSE 2.3 mph - N/A   Clear
8:58 PM 34.2 °F - 27.9 °F 78% 30.32 in 10.0 mi South 2.3 mph - N/A   Clear
9:58 PM 31.8 °F - 26.8 °F 82% 30.32 in 10.0 mi Calm Calm - N/A   Clear
10:58 PM 33.3 °F - 27.3 °F 79% 30.32 in 10.0 mi South 2.3 mph - N/A   Clear
11:58 PM 30.7 °F - 26.6 °F 85% 30.32 in 10.0 mi Calm Calm - N/A   Clear